When you browse on this site, cookies collect data to enhance your experience and personalize the content and advertising you see.
Visit our Privacy Policy to learn more. By continuing to use the site, you agree to this use of cookies and data.
  • In Hungary
  • List of Countries
  • For 7 days
  • Water Temperature
  • Satellite Maps
  • Weather Map
  • News
  • Weather Widgets
  • user-avatar
    Login

    Hourly Weather Hardoi

    Today, 23 July, Tuesday

    Time Temperature Precipitation Wind Pressure Humidity
    00:00 +35°C° 0 mm 1 mps 736 mmHg 52%
    01:00 +35°C° 0 mm 1 mps 736 mmHg 53%
    02:00 +33°C° 0 mm 0 mps 736 mmHg 53%
    03:00 +32°C° 0 mm 0 mps 736 mmHg 54%
    04:00 +32°C° 0 mm 0 mps 735 mmHg 55%
    05:00 +32°C° 0 mm 0 mps 735 mmHg 55%
    06:00 +35°C° 0.1 mm 1 mps 736 mmHg 53%
    07:00 +36°C° 0.1 mm 1 mps 736 mmHg 50%
    08:00 +37°C° 0.1 mm 1 mps 737 mmHg 48%
    09:00 +39°C° 0 mm 1 mps 737 mmHg 44%
    10:00 +40°C° 0 mm 2 mps 737 mmHg 40%
    11:00 +41°C° 0 mm 2 mps 736 mmHg 37%
    12:00 +43°C° 0 mm 3 mps 736 mmHg 36%
    13:00 +43°C° 0 mm 3 mps 735 mmHg 35%
    14:00 +44°C° 0 mm 4 mps 734 mmHg 34%
    15:00 +44°C° 0 mm 3 mps 734 mmHg 33%
    16:00 +44°C° 0 mm 3 mps 733 mmHg 33%
    17:00 +44°C° 0 mm 3 mps 733 mmHg 33%
    18:00 +42°C° 0 mm 2 mps 733 mmHg 35%
    19:00 +41°C° 0 mm 2 mps 733 mmHg 37%
    20:00 +40°C° 0 mm 1 mps 734 mmHg 40%
    21:00 +40°C° 0.2 mm 1 mps 734 mmHg 41%
    22:00 +39°C° 0.2 mm 1 mps 734 mmHg 43%
    23:00 +36°C° 0.2 mm 0 mps 734 mmHg 45%

    Tomorrow, 24 July, Wednesday

    Time Temperature Precipitation Wind Pressure Humidity
    00:00 +37°C° 0.2 mm 1 mps 734 mmHg 46%
    01:00 +37°C° 0.2 mm 1 mps 734 mmHg 48%
    02:00 +36°C° 0.2 mm 1 mps 733 mmHg 50%
    03:00 +37°C° 0 mm 2 mps 733 mmHg 54%
    04:00 +36°C° 0 mm 3 mps 734 mmHg 58%
    05:00 +35°C° 0 mm 3 mps 734 mmHg 62%
    06:00 +35°C° 0.1 mm 4 mps 734 mmHg 64%
    07:00 +35°C° 0.1 mm 4 mps 734 mmHg 65%
    08:00 +35°C° 0.1 mm 4 mps 735 mmHg 67%
    09:00 +36°C° 0 mm 4 mps 735 mmHg 63%
    10:00 +37°C° 0 mm 4 mps 735 mmHg 60%
    11:00 +38°C° 0 mm 4 mps 735 mmHg 56%
    12:00 +38°C° 0 mm 4 mps 735 mmHg 55%
    13:00 +38°C° 0 mm 4 mps 734 mmHg 54%
    14:00 +38°C° 0 mm 4 mps 734 mmHg 53%
    15:00 +37°C° 0.4 mm 4 mps 733 mmHg 57%
    16:00 +36°C° 0.4 mm 4 mps 733 mmHg 60%
    17:00 +35°C° 0.4 mm 4 mps 733 mmHg 64%
    18:00 +35°C° 0 mm 4 mps 733 mmHg 66%
    19:00 +34°C° 0 mm 4 mps 734 mmHg 68%
    20:00 +34°C° 0 mm 4 mps 734 mmHg 69%
    21:00 +33°C° 0.5 mm 4 mps 734 mmHg 71%
    22:00 +32°C° 0.5 mm 4 mps 735 mmHg 73%
    23:00 +30°C° 0.5 mm 4 mps 735 mmHg 74%

    Day after tomorrow, 25 July, Thursday

    Time Temperature Precipitation Wind Pressure Humidity
    00:00 +30°C° 3.6 mm 4 mps 735 mmHg 78%
    01:00 +29°C° 3.6 mm 4 mps 735 mmHg 82%
    02:00 +29°C° 3.6 mm 4 mps 735 mmHg 86%
    03:00 +29°C° 1.6 mm 4 mps 735 mmHg 87%
    04:00 +29°C° 1.6 mm 3 mps 735 mmHg 88%
    05:00 +29°C° 1.6 mm 3 mps 735 mmHg 88%
    06:00 +29°C° 0.6 mm 3 mps 736 mmHg 87%
    07:00 +29°C° 0.6 mm 3 mps 737 mmHg 87%
    08:00 +29°C° 0.6 mm 3 mps 737 mmHg 86%
    09:00 +30°C° 0.9 mm 3 mps 737 mmHg 84%
    10:00 +30°C° 0.9 mm 3 mps 737 mmHg 83%
    11:00 +30°C° 0.9 mm 3 mps 737 mmHg 81%
    12:00 +31°C° 0.7 mm 3 mps 737 mmHg 77%
    13:00 +33°C° 0.7 mm 3 mps 736 mmHg 73%
    14:00 +34°C° 0.7 mm 2 mps 736 mmHg 69%
    15:00 +32°C° 2.9 mm 2 mps 735 mmHg 71%
    16:00 +32°C° 2.9 mm 2 mps 735 mmHg 74%
    17:00 +31°C° 2.9 mm 2 mps 734 mmHg 76%
    18:00 +31°C° 1.4 mm 2 mps 735 mmHg 79%
    19:00 +30°C° 1.4 mm 2 mps 735 mmHg 82%
    20:00 +30°C° 1.4 mm 2 mps 736 mmHg 84%
    21:00 +30°C° 0.7 mm 3 mps 736 mmHg 85%
    22:00 +29°C° 0.7 mm 4 mps 736 mmHg 86%
    23:00 +29°C° 0.7 mm 5 mps 736 mmHg 86%

    26 July, Friday

    Time Temperature Precipitation Wind Pressure Humidity
    00:00 +29°C° 0.1 mm 5 mps 735 mmHg 86%
    01:00 +29°C° 0.1 mm 5 mps 735 mmHg 87%
    02:00 +29°C° 0.1 mm 5 mps 735 mmHg 87%
    03:00 +29°C° 0.1 mm 5 mps 735 mmHg 87%
    04:00 +28°C° 0.1 mm 5 mps 735 mmHg 87%
    05:00 +28°C° 0.1 mm 5 mps 735 mmHg 87%
    06:00 +29°C° 0 mm 5 mps 735 mmHg 84%
    07:00 +30°C° 0 mm 5 mps 736 mmHg 80%
    08:00 +30°C° 0 mm 5 mps 737 mmHg 77%
    09:00 +33°C° 0.1 mm 5 mps 737 mmHg 72%
    10:00 +34°C° 0.1 mm 5 mps 737 mmHg 67%
    11:00 +35°C° 0.1 mm 5 mps 736 mmHg 62%
    12:00 +35°C° 0.6 mm 5 mps 736 mmHg 60%
    13:00 +36°C° 0.6 mm 4 mps 735 mmHg 59%
    14:00 +36°C° 0.6 mm 4 mps 735 mmHg 58%
    15:00 +36°C° 1 mm 4 mps 735 mmHg 60%
    16:00 +35°C° 1 mm 4 mps 734 mmHg 63%
    17:00 +34°C° 1 mm 3 mps 734 mmHg 65%
    18:00 +34°C° 0.4 mm 3 mps 734 mmHg 69%
    19:00 +32°C° 0.4 mm 2 mps 735 mmHg 72%
    20:00 +32°C° 0.4 mm 1 mps 735 mmHg 75%
    21:00 +31°C° 0.7 mm 1 mps 735 mmHg 76%
    22:00 +31°C° 0.7 mm 1 mps 736 mmHg 77%
    23:00 +31°C° 0.7 mm 1 mps 736 mmHg 77%

    27 July, Saturday

    Time Temperature Precipitation Wind Pressure Humidity
    00:00 +31°C° 0.5 mm 1 mps 736 mmHg 78%
    01:00 +31°C° 0.5 mm 2 mps 735 mmHg 79%
    02:00 +30°C° 0.5 mm 2 mps 735 mmHg 80%
    03:00 +30°C° 1.6 mm 3 mps 735 mmHg 81%
    04:00 +30°C° 1.6 mm 3 mps 735 mmHg 81%
    05:00 +29°C° 1.6 mm 4 mps 735 mmHg 82%
    06:00 +30°C° 2.2 mm 4 mps 735 mmHg 79%
    07:00 +32°C° 2.2 mm 4 mps 736 mmHg 76%
    08:00 +33°C° 2.2 mm 4 mps 736 mmHg 73%
    09:00 +34°C° 2.3 mm 4 mps 736 mmHg 70%
    10:00 +35°C° 2.3 mm 4 mps 736 mmHg 66%
    11:00 +36°C° 2.3 mm 4 mps 736 mmHg 62%
    12:00 +37°C° 1 mm 4 mps 736 mmHg 59%
    13:00 +37°C° 1 mm 4 mps 735 mmHg 57%
    14:00 +38°C° 1 mm 4 mps 735 mmHg 54%
    15:00 +37°C° 1.6 mm 4 mps 734 mmHg 57%
    16:00 +37°C° 1.6 mm 3 mps 734 mmHg 60%
    17:00 +36°C° 1.6 mm 2 mps 733 mmHg 63%
    18:00 +35°C° 1.8 mm 2 mps 734 mmHg 67%
    19:00 +34°C° 1.8 mm 2 mps 734 mmHg 70%
    20:00 +32°C° 1.8 mm 2 mps 734 mmHg 74%
    21:00 +33°C° 0.2 mm 3 mps 735 mmHg 75%
    22:00 +33°C° 0.2 mm 3 mps 735 mmHg 77%
    23:00 +31°C° 0.2 mm 3 mps 735 mmHg 78%

    28 July, Sunday

    Time Temperature Precipitation Wind Pressure Humidity
    00:00 +32°C° 0.6 mm 4 mps 735 mmHg 80%
    01:00 +30°C° 0.6 mm 5 mps 735 mmHg 83%
    02:00 +29°C° 0.6 mm 5 mps 734 mmHg 85%
    03:00 +29°C° 0.8 mm 5 mps 734 mmHg 85%
    04:00 +29°C° 0.8 mm 4 mps 735 mmHg 85%
    05:00 +29°C° 0.8 mm 3 mps 735 mmHg 85%
    06:00 +30°C° 0.9 mm 5 mps 735 mmHg 82%
    07:00 +32°C° 0.9 mm 6 mps 736 mmHg 78%
    08:00 +33°C° 0.9 mm 7 mps 736 mmHg 75%
    09:00 +33°C° 0 mm 7 mps 736 mmHg 71%
    10:00 +34°C° 0 mm 6 mps 736 mmHg 68%
    11:00 +35°C° 0 mm 6 mps 736 mmHg 65%
    12:00 +36°C° 0.9 mm 6 mps 735 mmHg 63%
    13:00 +36°C° 0.9 mm 6 mps 735 mmHg 62%
    14:00 +36°C° 0.9 mm 6 mps 734 mmHg 61%
    15:00 +36°C° 1.4 mm 5 mps 734 mmHg 63%
    16:00 +35°C° 1.4 mm 5 mps 734 mmHg 65%
    17:00 +35°C° 1.4 mm 5 mps 734 mmHg 67%
    18:00 +34°C° 2.1 mm 4 mps 734 mmHg 71%
    19:00 +33°C° 2.1 mm 4 mps 734 mmHg 75%
    20:00 +32°C° 2.1 mm 4 mps 735 mmHg 78%
    21:00 +32°C° 0.3 mm 4 mps 735 mmHg 80%
    22:00 +32°C° 0.3 mm 4 mps 735 mmHg 81%
    23:00 +31°C° 0.3 mm 3 mps 735 mmHg 83%
    Show more